Location: Unspecified
(17.6330°N, 0.0000°E)
Time: 00:23:31
(UTC+00:00)

S-56A Canister/Altair - Pass Details

Date: 01 July 2019
Orbit: 632 x 2500 km, 38.9° (Epoch: 19 July)

Event Time Altitude Azimuth Distance (km) Brightness Sun altitude
Rises 14:42:32 0° 287° (WNW) 5,872 12.6 52.5°
Reaches altitude 10° 14:48:03 10° 301° (WNW) 4,590 12.3 51.3°
Maximum altitude 14:56:43 22° 346° (NNW) 3,159 11.2 49.3°
Drops below altitude 10° 15:03:26 10° 34° (NE) 3,462 10.8 47.7°
Sets 15:06:51 0° 50° (NE) 4,133 11.0 46.9°
